This is the latest recevied weather packets stored in our database for station/object N7IGG. If no packets are shown the sender has not sent any weather packets the latest 10 day(s).
| Time | Temp. | Humidity | Pressure | Rain* | Wind** | Luminosity | Snow |
|---|---|---|---|---|---|---|---|
| 1778122361 | 13.33° C | 84% | 1020.6 hPa | 0 mm | - | 0 W/m² | - |
| 1778122059 | 13.33° C | 84% | 1020.7 hPa | 0 mm | - | 0 W/m² | - |
| 1778121756 | 13.33° C | 84% | 1020.7 hPa | 0 mm | - | 2 W/m² | - |
| 1778121452 | 13.33° C | 83% | 1020.6 hPa | 0 mm | - | 4 W/m² | - |
| 1778121149 | 13.33° C | 83% | 1020.6 hPa | 0 mm | - | 5 W/m² | - |
| 1778120846 | 13.33° C | 83% | 1020.6 hPa | 0 mm | - | 7 W/m² | - |
| 1778120542 | 13.33° C | 83% | 1020.6 hPa | 0 mm | - | 10 W/m² | - |
| 1778120238 | 13.33° C | 83% | 1020.5 hPa | 0 mm | - | 12 W/m² | - |
| 1778119934 | 13.33° C | 83% | 1020.6 hPa | 0 mm | - | 12 W/m² | - |
| 1778119633 | 13.89° C | 83% | 1020.5 hPa | 0 mm | - | 15 W/m² | - |
| 1778119328 | 13.89° C | 83% | 1020.4 hPa | 0 mm | - | 15 W/m² | - |
| 1778119026 | 13.89° C | 83% | 1020.7 hPa | 0 mm | - | 17 W/m² | - |
| 1778118724 | 13.89° C | 83% | 1020.6 hPa | 0 mm | - | 17 W/m² | - |
| 1778118420 | 13.89° C | 83% | 1020.6 hPa | 0 mm | - | 20 W/m² | - |
| 1778118116 | 13.89° C | 83% | 1020.6 hPa | 0 mm | - | 22 W/m² | - |
| 1778117813 | 13.89° C | 83% | 1020.7 hPa | 0 mm | - | 21 W/m² | - |
| 1778117510 | 13.89° C | 83% | 1020.7 hPa | 0 mm | - | 23 W/m² | - |
| 1778117208 | 13.89° C | 83% | 1020.5 hPa | 0 mm | - | 26 W/m² | - |
| 1778116903 | 13.89° C | 83% | 1020.7 hPa | 0 mm | - | 27 W/m² | - |
| 1778116601 | 13.89° C | 84% | 1020.6 hPa | 0 mm | - | 26 W/m² | - |
| 1778116297 | 13.33° C | 84% | 1020.6 hPa | 0 mm | - | 26 W/m² | - |
| 1778115992 | 13.33° C | 84% | 1020.6 hPa | 0 mm | - | 28 W/m² | - |
| 1778115711 | 13.33° C | 84% | 1020.7 hPa | 0 mm | - | 34 W/m² | - |
| 1778115386 | 13.33° C | 84% | 1020.7 hPa | 0 mm | - | 37 W/m² | - |
| 1778115082 | 13.33° C | 84% | 1020.7 hPa | 0 mm | - | 42 W/m² | - |
* Rain latest hour (hover to see other rain measurements)
** Current wind speed in m/s (hover to see current wind gust speed)